Theta_e
350 346 347 349 348 344 345 341 344 348 344 345 342 341 340 340 342 344 345 347 349 348 349 347 347 343 341 338 336 340 343 343 340 341 337 335 329 326 327 327 335 335 333
351 345 347 347 349 346 344 348 347 347 346 344 343 343 342 341 339 340 344 346 347 344 344 346 347 346 345 341 339 335 340 342 343 341 341 341 338 335 327 326 328 335 327
349 346 348 348 349 344 347 347 347 346 346 346 346 341 339 339 338 338 336 337 341 345 347 346 344 345 343 345 343 340 338 337 339 342 342 340 341 340 338 332 326 330 328
349 343 352 353 350 345 347 348 348 344 346 344 343 339 338 338 337 336 337 337 337 341 337 341 343 342 342 342 341 341 341 342 341 339 342 341 341 340 340 339 335 330 325
350 342 350 350 343 347 347 349 345 348 340 341 342 337 337 335 338 338 338 337 336 336 341 339 338 341 340 339 341 341 342 341 340 340 338 341 341 341 341 341 340 339 335
347 352 348 351 348 348 348 350 344 346 339 337 336 335 335 336 337 340 337 337 337 336 336 336 339 338 337 339 342 340 338 339 342 342 342 341 339 339 341 341 340 341 340
353 352 348 350 351 349 350 347 352 344 338 337 335 334 334 336 339 340 336 338 336 340 339 337 338 339 338 339 338 337 337 339 340 343 342 341 341 342 339 339 340 340 341
348 352 350 350 350 350 349 350 350 339 338 336 336 337 340 336 335 334 338 336 337 336 332 334 333 332 333 331 329 328 334 335 335 335 335 335 339 341 342 341 340 339 339
352 354 351 353 351 352 348 352 348 340 339 335 337 338 340 337 336 336 336 334 333 332 331 332 329 329 328 327 326 326 328 328 330 332 333 335 336 336 339 342 342 341 340
351 351 348 343 349 349 354 349 339 341 338 336 335 338 338 336 338 339 334 332 330 329 329 328 326 326 326 326 327 329 329 330 330 329 328 328 328 331 335 338 340 342 342
353 353 350 351 348 352 349 344 345 337 337 336 335 331 331 336 333 331 330 329 324 325 326 326 325 326 327 329 327 328 329 328 327 327 328 328 328 328 328 329 334 339 342
352 352 351 353 355 351 346 345 342 336 337 336 336 335 338 333 332 329 328 326 326 325 324 326 328 327 326 327 328 328 327 327 327 326 327 327 328 328 328 327 328 331 338
353 353 353 352 350 348 346 345 335 336 337 338 339 340 329 331 330 327 326 326 325 325 327 325 325 328 329 329 328 328 327 325 326 326 327 327 327 327 328 328 327 326 329
353 352 353 352 351 343 343 343 334 337 339 340 342 335 326 327 328 327 326 325 327 325 325 327 327 329 328 327 326 324 330 330 328 327 327 327 327 326 328 328 327 326 323
354 351 352 351 351 346 346 339 334 339 340 342 341 334 331 331 327 327 326 326 324 325 326 329 328 327 323 323 324 329 328 326 324 324 325 326 326 326 326 327 328 327 324
351 356 355 353 349 349 346 341 338 342 342 342 340 332 331 329 327 328 327 324 325 327 327 326 325 325 323 324 325 325 322 323 323 325 327 328 328 327 326 325 326 328 327
355 354 355 354 354 348 347 342 339 342 342 340 332 328 332 331 329 328 326 326 323 323 326 325 322 323 323 325 325 322 323 322 322 324 325 328 328 327 327 326 325 326 326
357 357 356 354 354 349 344 343 340 343 342 337 334 333 332 330 328 328 327 325 322 324 324 325 321 324 324 322 321 321 321 322 321 323 325 325 328 328 328 326 325 325 326
359 357 355 356 354 349 345 343 342 343 341 335 333 333 332 331 329 328 324 321 322 324 320 320 324 323 322 320 319 320 320 319 321 323 323 325 327 327 328 328 327 326 326
359 359 359 357 352 350 346 344 344 343 337 333 334 334 331 331 331 323 322 322 323 320 319 323 324 321 319 319 319 317 318 320 324 325 325 325 327 327 328 327 328 327 326
361 360 360 356 351 349 347 344 344 340 335 334 335 332 332 331 325 323 322 322 321 318 322 323 324 320 318 318 316 317 319 324 325 324 325 327 327 328 328 328 328 328 327
358 357 354 354 352 348 344 344 341 336 334 334 332 332 332 328 325 323 322 316 313 319 323 323 321 320 319 318 315 318 322 324 324 325 326 327 328 328 328 329 330 330 328
357 356 355 351 349 346 344 340 338 333 328 327 331 330 331 327 321 320 317 316 311 316 321 321 319 320 318 318 318 319 322 325 326 326 327 327 328 329 330 330 330 331 330
356 355 353 349 348 344 343 339 333 327 320 323 329 331 328 322 321 320 318 312 310 313 316 317 318 316 315 319 319 319 319 322 326 327 327 329 330 331 330 329 329 330 330
354 350 349 346 344 343 340 334 331 320 323 330 332 328 323 322 321 318 314 306 309 310 311 316 318 317 314 317 319 318 318 318 320 327 329 329 331 332 333 334 334 333 332
351 348 346 343 342 338 336 332 322 322 327 328 328 323 322 320 318 310 305 307 307 307 310 315 317 315 309 310 318 318 317 317 317 320 323 326 332 333 335 333 335 333 330
Wind_Speed
3 5 5 5 5 6 6 8 13 9 15 13 14 12 13 12 13 14 15 19 12 14 16 20 16 15 16 16 16 17 16 15 14 13 12 12 12 13 14 15 14 12 12
3 1 2 6 5 3 8 13 15 13 16 12 12 13 16 14 13 11 11 16 16 16 15 17 15 16 15 18 17 18 19 18 17 16 16 15 14 14 15 15 15 16 14
4 3 4 7 4 6 10 12 12 8 10 11 13 12 14 13 12 13 13 8 12 15 14 14 16 16 20 18 19 20 19 22 23 20 18 18 17 16 16 16 16 17 16
2 4 5 6 6 4 6 8 7 10 11 11 12 15 15 14 14 13 13 12 15 16 17 14 14 17 17 20 20 19 24 26 27 27 24 21 19 18 17 17 17 17 18
6 5 1 9 5 5 4 6 11 10 14 13 14 16 15 12 10 8 8 14 13 13 9 15 17 14 18 19 21 21 20 22 23 25 27 26 25 23 21 19 20 19 19
9 9 5 7 9 2 6 9 9 13 12 14 17 17 11 10 10 7 11 11 8 11 12 13 15 20 18 20 15 18 20 20 19 21 23 25 28 29 28 25 23 22 21
10 9 9 4 7 5 9 12 7 14 8 11 18 22 14 10 1 5 13 9 13 7 12 15 16 15 19 20 21 18 20 19 20 18 21 24 26 28 30 30 29 27 25
17 15 15 14 9 12 8 12 12 13 11 11 11 16 11 8 11 13 8 11 10 16 25 17 19 22 24 23 25 21 23 23 23 23 22 23 26 27 30 30 29 31 31
14 17 17 14 15 16 8 11 14 12 13 14 6 13 7 5 19 13 10 17 18 20 17 19 20 19 21 23 22 25 20 22 25 24 26 26 26 26 28 30 32 33 32
19 16 18 17 14 12 14 15 15 13 15 15 11 7 11 15 19 22 20 21 19 23 21 23 22 19 20 24 24 20 23 23 24 25 27 30 32 32 31 31 31 33 34
16 18 19 16 15 18 15 14 15 16 15 14 13 14 11 11 13 17 20 25 27 25 24 21 25 22 21 19 24 26 25 28 30 31 31 34 36 36 36 34 34 33 33
24 23 20 18 22 21 18 17 16 18 18 15 14 11 8 11 13 16 19 23 23 28 30 26 23 23 24 24 24 26 32 34 35 37 39 39 39 41 39 39 38 36 36
18 22 19 20 24 24 19 17 15 16 16 14 13 12 12 11 11 16 20 23 26 28 25 30 26 26 24 22 22 24 32 41 46 49 48 48 45 45 46 41 40 39 38
17 18 23 25 25 24 19 18 16 18 13 13 10 14 14 10 11 15 19 25 29 26 28 27 31 27 29 34 38 41 36 38 47 53 56 56 55 53 41 43 45 43 40
18 22 27 30 30 19 16 18 17 17 10 9 12 10 12 11 12 17 17 21 28 31 29 28 27 32 40 41 41 38 45 50 47 42 43 43 44 45 49 45 41 41 40
29 22 28 28 26 18 18 16 20 11 13 15 13 9 14 15 16 14 19 21 19 26 31 32 36 35 39 42 44 48 59 52 42 34 31 34 35 37 40 44 47 41 40
26 29 35 35 27 18 18 22 20 15 17 16 13 12 9 15 16 21 21 19 26 26 30 35 37 40 40 40 47 53 52 52 42 32 31 28 29 29 33 38 44 49 43
32 35 32 31 27 19 18 21 18 11 12 13 9 9 14 13 19 22 20 27 21 24 27 35 39 41 42 49 54 57 54 45 42 33 28 29 27 28 28 30 32 39 43
30 33 33 30 27 20 19 20 15 12 14 12 10 11 14 14 18 19 27 26 26 23 31 34 37 41 42 53 61 57 55 51 42 35 27 23 23 26 32 32 34 35 36
26 28 28 28 24 19 19 17 11 12 14 9 8 12 13 14 18 23 25 24 25 31 31 30 36 40 50 56 58 49 54 47 41 33 25 23 22 24 23 25 30 34 32
24 25 26 26 20 22 19 14 12 15 10 7 12 12 11 17 19 19 24 26 29 31 26 31 33 39 53 64 52 50 47 40 38 28 16 14 18 21 21 20 26 30 33
22 24 26 21 20 17 12 13 16 11 10 12 9 11 15 16 18 25 25 25 24 22 25 27 32 38 50 61 48 44 39 38 32 19 14 16 13 16 18 18 22 21 24
24 23 21 20 17 15 13 17 17 15 16 9 10 13 18 17 25 26 26 29 24 19 18 24 27 34 47 52 42 39 31 27 27 23 17 22 15 21 18 18 21 22 23
18 17 16 14 16 15 15 13 14 13 11 11 10 11 20 21 24 26 27 31 24 20 21 21 22 30 39 52 38 33 32 26 22 18 17 21 21 19 16 20 24 21 24
15 15 12 13 11 15 14 11 11 10 7 9 9 13 17 20 23 24 29 26 22 21 21 17 19 27 34 42 42 34 35 35 35 21 10 26 24 21 19 15 12 17 21
10 10 10 12 12 10 10 11 9 9 5 7 11 13 16 19 21 27 23 20 22 24 25 20 20 27 31 36 43 41 35 38 36 24 25 27 25 23 9 4 3 7 17
Wind_Direction
342 44 42 27 64 26 16 333 29 11 8 15 343 332 320 312 315 317 304 291 300 297 304 304 307 303 290 278 268 260 262 259 255 257 254 251 252 248 243 242 237 239 239
290 2 48 21 74 313 16 14 10 3 5 359 345 340 336 331 326 308 319 320 311 318 321 317 302 302 302 287 281 264 257 261 261 256 255 254 250 249 248 243 240 239 242
311 100 56 47 302 351 18 6 9 349 353 330 339 344 326 314 307 300 313 336 311 314 319 298 301 295 308 301 293 274 265 261 259 256 255 256 253 249 248 247 244 241 242
315 169 356 257 303 9 6 359 317 337 333 351 343 330 327 327 326 348 331 306 285 286 300 312 305 305 300 307 303 292 274 267 266 257 252 252 254 254 250 250 246 244 242
228 256 4 303 322 71 343 293 325 347 357 348 334 334 333 327 325 320 349 339 344 332 316 307 304 304 297 305 299 300 297 275 269 261 257 254 253 254 254 251 252 246 244
228 236 230 288 324 62 298 297 335 351 352 337 314 337 337 324 296 351 334 326 305 300 293 290 299 309 300 299 290 304 310 302 280 266 264 261 257 255 253 252 250 249 246
213 237 242 261 296 308 272 301 304 332 9 316 319 343 354 354 219 288 310 311 331 273 298 324 318 288 293 285 292 304 294 291 292 284 276 270 266 259 254 252 250 249 248
243 230 241 229 226 250 267 276 286 322 349 338 326 339 337 61 305 337 344 327 302 306 320 302 301 299 305 308 311 299 286 287 290 291 284 276 266 262 258 255 252 250 247
243 234 239 238 231 250 271 281 299 312 330 343 332 326 317 287 320 333 320 319 314 324 326 318 310 311 305 304 305 311 303 297 288 286 286 282 279 267 261 255 254 251 248
258 255 251 246 251 257 244 270 283 310 315 323 317 265 279 305 301 308 314 317 319 310 312 306 314 310 300 300 301 302 307 311 306 299 296 290 283 275 266 261 254 251 246
245 257 256 254 254 253 257 268 279 304 313 308 291 300 311 323 302 315 320 315 313 314 318 314 305 308 309 304 301 301 294 291 292 292 287 283 282 279 274 265 257 250 246
251 255 250 237 243 252 252 262 280 305 309 302 307 311 296 298 308 312 315 312 311 311 311 320 316 308 304 306 302 298 300 296 290 286 283 282 281 279 275 268 261 253 247
251 257 257 243 248 257 265 272 285 308 300 301 308 305 305 287 306 316 315 312 309 312 316 308 311 317 311 302 302 299 291 292 293 290 285 282 278 276 269 266 262 255 247
234 260 245 261 267 259 262 271 295 310 302 305 279 302 307 318 310 315 306 318 315 314 313 313 315 315 311 310 308 300 299 291 291 287 282 273 270 268 265 266 262 254 248
232 247 254 263 271 266 266 275 295 301 283 276 275 300 308 290 308 299 325 308 313 314 311 314 314 306 305 310 308 305 297 300 302 292 288 282 272 265 258 255 257 254 246
228 240 254 257 268 260 265 271 294 288 273 262 268 262 273 295 305 326 303 319 322 311 312 311 311 311 315 318 319 310 313 314 312 297 287 282 277 264 259 252 249 250 250
242 232 246 255 263 252 267 280 277 252 256 270 276 281 294 303 317 309 325 320 307 309 313 311 315 321 325 325 313 316 318 317 315 304 290 283 282 271 260 256 249 248 249
237 241 248 256 260 248 273 278 274 252 259 276 279 282 283 301 310 324 313 309 321 312 313 314 321 327 327 327 324 321 321 323 318 311 290 279 270 273 259 251 246 242 244
239 243 249 253 256 254 272 274 262 259 256 250 265 270 291 306 320 308 311 322 324 320 319 326 325 329 329 336 333 327 326 325 322 316 299 283 273 269 263 250 244 241 242
241 238 244 258 268 254 268 264 270 260 273 263 279 274 296 317 302 316 316 324 315 319 327 334 327 332 336 336 334 324 324 326 323 315 302 274 265 264 260 251 249 244 246
235 233 234 257 250 251 252 254 235 246 264 262 257 287 306 294 324 318 319 321 323 321 333 331 331 335 339 342 332 332 328 329 332 323 305 290 274 261 258 254 254 247 242
230 235 246 241 241 243 228 233 243 258 235 251 290 299 288 321 303 309 317 319 323 327 332 330 330 331 333 342 338 335 332 337 323 344 324 310 293 276 253 251 260 257 246
224 232 236 228 226 218 219 220 237 250 248 261 270 289 300 308 316 328 328 328 328 329 335 329 330 333 331 349 344 342 339 341 330 333 321 310 298 271 261 262 256 254 247
227 227 220 223 214 224 229 241 248 254 266 289 308 294 313 322 318 316 320 324 329 332 337 342 333 348 342 354 348 353 0 352 335 347 335 335 339 309 284 268 257 246 240
219 225 202 213 211 226 243 249 263 266 291 323 309 306 319 306 305 308 319 324 329 338 342 351 342 345 346 358 6 1 10 9 355 356 318 327 336 326 305 287 267 235 223
199 205 187 184 215 243 258 278 268 268 269 292 291 318 310 305 307 318 327 334 341 342 348 1 349 338 344 358 9 15 21 18 10 360 338 336 348 345 323 355 143 175 189